Погода в Паницкой

Россия / Саратовская область     51°10′56″N   45°29′57″E
темп.,
°C
ветер,
м/с
пор.,
м/с
влажн.,
%
обл.,
%
осадки,
мм/ч
давл.,
гПа
погр.,
м
21 апреля, ср
ср2101:00+7юв122292100 2.9 1014920
04:00+7юв112178100 3.4 1014845
07:00+6юв101983100 0.0 1014692
10:00+8ююв91771100 0.0 1015833
13:00+9ююв81389100 0.0 1015879
16:00+11ююв71179100 0.5 10151018
19:00+10ю4788100 1.1 1017216
22:00+7ююв369852 1.6 1020151
22 апреля, чт
чт2201:00+8вюв239976 0.7 1020110
04:00+7юв349782 0.8 1021149
07:00+7юв24957 0.0 102294
10:00+12ююв336956 0.1 1022516
13:00+15ю235440 1.3 10221428
16:00+15ююз335545 3.2 10221272
19:00+14юз126855 2.3 102264
22:00+10юв227895 2.9 102321
23 апреля, пт
пт2301:00+9юв368697 0.1 1023163
04:00+8в2486100 0.1 1023109
07:00+7в358738 0.0 1024187
10:00+10в4574100 0.0 1024431
13:00+13в3366100 0.0 1022575
16:00+14в4557100 0.0 1021934
19:00+12всв3467100 0.0 1020213
22:00+10всв227491 0.0 102028
24 апреля, сб
сб2401:00+8всв228217 0.0 101811
04:00+7всв11865 0.0 101710
07:00+8вюв11862 0.0 101636
10:00+12ю3366100 0.0 1015724
13:00+15ююз5657100 0.6 10131469
16:00+16ююз7951100 2.5 10112136
19:00+12юз6107199 0.5 1011862
22:00+7з6118212 0.8 1013763
25 апреля, вс
вс2501:00+6з511820 0.0 1015397
04:00+5юз411840 0.0 1015288
07:00+5зюз488514 0.0 1016449
10:00+8юз69630 0.0 10161300
13:00+11зюз794073 0.1 10152400
16:00+12юз7938100 0.1 10152477
19:00+10зюз4753100 0.0 1016383
22:00+7зюз2363100 0.0 101645